This is the latest recevied weather packets stored in our database for station/object K5OBH. If no packets are shown the sender has not sent any weather packets the latest 10 day(s).
| Time | Temp. | Humidity | Pressure | Rain* | Wind** | Luminosity | Snow |
|---|---|---|---|---|---|---|---|
| 1777425424 | 17.78° C | 73% | 1013.5 hPa | 0 mm | - | 2 W/m² | - |
| 1777425120 | 17.78° C | 72% | 1013.5 hPa | 0 mm | - | 4 W/m² | - |
| 1777424817 | 17.78° C | 71% | 1013.3 hPa | 0 mm | - | 7 W/m² | - |
| 1777424512 | 18.33° C | 71% | 1013.3 hPa | 0 mm | - | 10 W/m² | - |
| 1777424208 | 18.33° C | 70% | 1013.5 hPa | 0 mm | - | 13 W/m² | - |
| 1777423905 | 18.33° C | 69% | 1013 hPa | 0 mm | - | 16 W/m² | - |
| 1777423602 | 18.89° C | 68% | 1013 hPa | 0 mm | - | 19 W/m² | - |
| 1777423297 | 18.89° C | 69% | 1013.1 hPa | 0 mm | - | 22 W/m² | - |
| 1777422992 | 18.89° C | 67% | 1013 hPa | 0 mm | - | 25 W/m² | - |
| 1777422687 | 19.44° C | 66% | 1012.7 hPa | 0 mm | - | 29 W/m² | - |
| 1777422383 | 19.44° C | 63% | 1013.1 hPa | 0 mm | - | 40 W/m² | - |
| 1777422078 | 20° C | 64% | 1013 hPa | 0 mm | - | 45 W/m² | - |
| 1777421772 | 20° C | 64% | 1013.1 hPa | 0 mm | - | 56 W/m² | - |
| 1777421469 | 20° C | 64% | 1013 hPa | 0 mm | - | 64 W/m² | - |
| 1777421165 | 20° C | 63% | 1013 hPa | 0 mm | - | 71 W/m² | - |
| 1777420861 | 20° C | 64% | 1012.9 hPa | 0 mm | - | 79 W/m² | - |
| 1777420557 | 20° C | 66% | 1013.1 hPa | 0 mm | - | 89 W/m² | - |
| 1777420253 | 20° C | 64% | 1013 hPa | 0 mm | - | 99 W/m² | - |
| 1777419948 | 20° C | 64% | 1013.2 hPa | 0 mm | - | 108 W/m² | - |
| 1777419646 | 20° C | 65% | 1012.9 hPa | 0 mm | - | 120 W/m² | - |
| 1777419344 | 20° C | 65% | 1012.8 hPa | 0 mm | - | 131 W/m² | - |
| 1777419043 | 20° C | 64% | 1012.8 hPa | 0 mm | - | 141 W/m² | - |
| 1777418742 | 20° C | 65% | 1012.7 hPa | 0 mm | - | 156 W/m² | - |
| 1777418440 | 20° C | 64% | 1012.5 hPa | 0 mm | - | 168 W/m² | - |
| 1777418136 | 20° C | 64% | 1012.6 hPa | 0 mm | - | 183 W/m² | - |
* Rain latest hour (hover to see other rain measurements)
** Current wind speed in m/s (hover to see current wind gust speed)